Location: ???????
(38.3360°N, 23.6977°E)
Time: 22:50:40
(UTC+00:00)

Cosmos 968 Rocket - Pass Details

Date: 17 November 2025
Orbit: 735 x 766 km, 74.0° (Epoch: 09 December)

Event Time Altitude Azimuth Distance (km) Brightness Sun altitude
Rises 17:14:02 0° 190° (S) 3,164 6.9 -24.0°
Reaches altitude 10° 17:16:22 10° 188° (S) 2,250 6.1 -24.5°
Enters shadow 17:20:37 58° 156° (SSE) 872 3.6 -25.3°
